Theta_e
302 303 303 303 303 303 302 302 302 302 302 302 302 302 303 303 303 302 303 304 304 305 305 305 306 306 306 306 306 308 308 307 308 309 308 308 307 308 309 310 310 311 312 312 312 313 314 314 314 314 313 311 311 310 310 312 316 319 319 318 318 321 325 323 320 322 322 321 322 322 320 321 321 322 323 322 321 321 319 322 323 319 317 318 318 317 319
303 303 303 303 303 303 303 302 303 303 303 303 303 303 303 303 303 302 302 303 304 304 304 304 305 305 305 305 305 307 307 307 308 308 308 307 307 307 308 309 310 310 311 311 311 312 313 312 311 311 312 312 311 311 310 311 315 317 317 317 317 320 324 324 320 320 320 320 320 320 319 320 321 323 324 322 322 322 321 325 326 320 318 319 318 317 320
303 303 303 303 303 303 303 303 303 303 303 303 303 303 303 302 302 302 302 302 304 304 303 304 304 304 304 305 304 306 307 307 307 307 307 307 307 307 308 308 309 309 310 311 310 310 312 312 311 310 311 311 310 310 310 311 315 316 316 317 318 320 324 325 322 321 321 321 321 319 320 321 321 322 323 323 323 322 320 322 321 319 322 322 318 318 322
303 303 303 303 303 303 303 303 303 303 303 303 303 303 303 302 302 302 303 303 304 304 304 304 304 303 304 304 304 305 305 307 307 307 307 307 307 307 307 308 309 309 309 311 311 309 310 311 310 310 310 310 310 310 310 312 315 315 315 316 317 319 321 323 324 324 322 322 322 320 319 320 321 321 322 323 323 324 323 319 318 322 324 321 321 323 324
303 303 303 303 303 303 303 303 303 303 303 303 302 302 303 303 302 302 303 303 304 304 304 304 304 304 304 304 304 304 305 305 307 306 306 306 306 307 307 307 307 307 308 310 310 309 309 310 310 310 310 310 310 310 310 312 314 314 312 314 316 317 318 320 322 321 318 317 318 317 317 319 320 320 321 322 323 324 324 320 323 329 323 317 324 331 326
303 303 303 303 303 303 303 303 303 303 302 302 303 303 303 302 302 303 303 303 303 303 303 304 304 304 304 304 304 304 304 304 305 306 306 306 306 307 307 307 306 306 307 308 310 309 310 310 310 310 310 310 309 310 311 311 312 311 310 312 315 316 317 318 318 316 315 314 315 316 317 318 319 319 320 321 321 322 322 322 325 329 323 318 327 336 330
303 303 303 303 303 303 303 303 303 303 302 302 303 303 303 302 303 303 303 303 303 303 303 304 304 303 304 305 304 304 304 304 304 304 305 306 306 306 307 306 305 305 306 307 309 309 310 310 310 310 310 310 309 310 310 310 311 310 309 311 313 314 317 317 314 313 314 314 314 316 317 317 317 318 318 319 319 320 321 322 324 325 324 323 327 332 331
303 303 303 303 303 303 303 303 303 303 303 302 302 303 303 302 303 303 303 303 303 303 304 304 303 303 304 304 303 303 303 303 304 304 304 305 306 305 305 305 305 305 306 307 308 308 308 308 309 309 309 309 310 310 310 310 310 309 308 310 312 313 316 316 313 313 315 314 314 315 316 316 316 317 318 318 319 320 320 322 323 324 325 326 325 327 328
303 304 304 304 303 303 303 303 303 303 303 303 302 302 302 302 302 302 302 303 303 304 304 304 303 302 303 303 303 303 303 303 304 304 304 305 305 304 304 304 305 305 306 307 307 307 307 307 307 308 308 309 309 310 310 310 309 309 309 310 311 311 313 313 312 313 314 314 314 314 315 316 316 317 319 319 320 321 322 323 324 324 325 326 325 324 326
303 303 304 304 304 304 304 303 303 303 303 303 303 302 302 302 302 302 302 303 303 303 303 303 303 302 303 303 303 303 303 304 304 304 305 305 305 304 304 304 305 305 306 307 307 306 306 306 307 308 308 308 309 309 309 309 309 309 310 310 311 311 311 311 311 312 314 314 313 314 315 317 318 318 320 322 322 324 324 324 324 325 325 325 325 324 326
303 303 304 304 304 304 304 304 303 303 303 303 303 303 303 302 302 303 303 303 303 303 302 302 302 302 303 303 303 303 303 304 304 304 304 304 304 304 304 305 305 305 306 307 306 306 306 306 307 308 308 309 309 309 309 309 308 309 309 309 310 311 312 312 312 312 313 313 313 314 316 318 319 319 321 324 327 329 331 330 330 329 326 324 325 326 328
303 303 303 304 305 305 304 304 304 303 303 303 303 303 302 302 302 302 302 303 303 302 302 302 302 302 303 303 303 303 303 303 303 304 303 304 304 304 304 305 305 305 306 306 306 306 307 307 307 308 309 309 310 310 309 308 308 309 309 309 310 311 312 313 313 313 312 313 314 316 318 320 319 319 323 328 330 332 334 335 335 333 331 330 328 325 327
303 303 303 304 304 305 305 305 304 304 303 303 303 302 302 302 302 302 303 303 302 302 302 302 303 303 303 303 303 303 303 303 303 304 304 304 304 304 305 305 306 306 305 305 306 307 308 308 308 309 309 310 310 310 309 308 308 309 309 309 309 310 311 313 314 313 312 313 314 316 319 318 315 320 328 332 332 333 335 335 335 335 335 336 335 333 331
303 303 304 304 304 305 305 305 305 304 304 303 303 303 302 302 302 302 303 302 303 303 303 302 303 303 303 303 303 303 303 303 303 304 304 304 304 304 305 305 305 305 305 306 307 309 309 309 309 308 308 308 308 308 309 309 309 309 309 309 310 310 310 312 313 313 312 312 312 315 317 315 314 323 331 331 332 334 335 334 335 336 337 338 340 341 341
302 303 304 304 304 305 305 305 305 305 304 304 303 303 303 303 302 302 302 302 303 303 303 302 302 303 303 303 303 303 302 302 303 303 303 303 304 304 304 304 305 305 305 307 308 310 309 308 307 307 307 306 306 307 308 309 309 309 309 309 310 310 310 311 312 312 312 312 312 314 314 314 319 327 330 330 332 334 333 334 336 336 336 337 338 341 342
302 302 303 304 305 305 305 305 305 305 305 304 304 303 303 303 302 302 302 302 302 303 303 303 303 303 303 303 303 302 302 302 302 302 303 303 304 304 304 304 305 305 306 308 310 309 308 307 307 307 308 308 308 307 308 308 309 311 311 310 310 310 311 311 311 312 313 312 311 312 312 316 325 332 329 329 333 334 333 333 334 335 335 336 337 338 339
302 302 303 304 305 306 306 305 306 306 305 305 304 304 303 303 303 302 302 302 302 303 303 303 303 303 303 302 303 303 303 303 303 302 303 303 303 304 304 305 305 305 306 308 309 309 307 307 307 307 308 308 308 307 308 309 310 312 313 312 311 311 311 311 311 312 313 314 313 312 312 317 325 330 329 331 335 335 333 331 333 334 334 335 337 337 339
302 302 303 304 305 306 305 305 306 306 306 305 305 304 304 303 303 303 302 302 302 303 303 302 302 303 303 302 303 303 303 303 303 303 303 303 303 304 305 305 304 305 306 308 309 308 307 307 307 307 307 308 308 308 310 311 311 313 314 313 313 313 312 312 311 311 312 313 314 314 314 317 321 326 330 335 335 333 331 331 333 335 334 335 336 337 338
302 302 303 304 305 305 304 304 305 306 306 306 305 305 304 304 303 303 303 302 303 303 303 302 302 303 303 303 303 303 303 303 303 303 302 303 304 305 304 304 304 305 306 308 308 307 306 307 308 308 308 309 309 309 310 310 311 311 311 312 314 315 314 314 313 312 312 313 314 315 316 319 324 328 332 333 329 327 330 333 334 334 335 335 335 337 338
302 302 302 304 306 306 305 304 306 307 306 306 306 305 304 304 304 303 303 303 303 303 303 303 302 302 302 303 303 303 303 303 303 303 302 303 304 304 303 304 305 305 306 307 306 306 306 307 308 307 307 308 310 309 309 309 309 309 309 311 313 314 315 316 315 313 313 313 313 314 317 322 328 331 331 330 327 329 333 335 335 334 334 334 335 336 336
302 302 302 303 306 308 307 306 306 307 307 306 306 305 305 304 304 304 303 303 303 303 303 302 302 302 302 302 302 302 303 303 302 303 303 303 303 303 303 304 305 305 306 306 306 306 306 306 307 307 306 307 308 308 308 308 308 308 309 310 311 313 315 316 316 315 314 314 314 316 321 324 326 328 332 333 332 334 334 334 334 334 334 333 333 334 334
302 302 302 304 306 308 308 306 307 308 308 307 306 306 305 305 304 304 304 303 303 303 303 302 302 302 302 302 302 302 302 302 302 302 302 303 303 303 303 304 304 304 305 306 305 305 306 306 306 306 306 306 307 307 308 308 308 308 309 309 311 312 313 314 315 315 315 315 315 317 320 321 321 324 330 333 333 333 333 333 333 334 332 332 332 332 332
301 302 302 303 306 308 308 307 307 307 308 307 306 306 306 305 304 304 304 304 303 303 303 303 303 303 302 302 302 302 302 302 302 302 302 302 303 303 303 304 304 304 304 304 304 305 306 306 306 306 306 306 307 307 308 308 308 308 308 308 309 311 311 312 314 314 313 314 316 316 317 319 320 324 329 331 332 332 332 332 332 332 331 331 331 332 332
302 302 303 304 306 308 307 307 307 307 308 308 307 307 306 306 305 304 304 304 303 303 303 303 303 303 302 302 302 302 302 302 302 302 302 302 303 303 303 304 304 304 304 304 304 305 306 306 307 307 306 306 307 307 307 308 308 308 308 308 309 310 311 311 313 313 312 313 315 317 319 321 321 322 326 330 331 331 331 331 331 331 331 330 331 332 333
302 303 304 305 307 306 305 306 306 307 308 308 308 307 307 306 305 304 304 304 303 303 303 303 303 303 302 302 302 302 302 303 303 303 303 303 303 303 304 304 304 304 305 304 304 305 306 306 307 307 307 307 308 307 307 308 308 308 309 309 309 310 311 310 311 311 312 312 314 315 317 317 316 316 321 326 330 331 331 330 330 330 331 331 331 332 333
303 304 306 306 306 305 305 306 306 306 307 308 308 307 307 306 305 304 304 304 303 303 303 303 303 303 303 302 302 303 303 303 303 303 303 303 303 303 303 304 304 304 304 304 304 305 306 306 307 307 307 308 308 308 307 308 308 309 309 309 309 309 310 309 309 311 311 311 313 314 315 315 315 316 318 323 328 330 329 329 330 331 331 331 331 332 332
305 306 306 305 304 304 306 307 307 307 307 308 308 307 307 306 305 305 304 303 303 303 303 303 303 303 302 303 303 303 303 303 303 303 303 304 304 304 303 303 304 304 304 305 305 306 306 306 306 306 307 307 308 308 308 308 309 309 308 308 309 309 309 309 310 311 311 311 313 315 317 319 322 322 321 323 327 329 328 328 329 330 331 331 332 331 332
306 306 304 303 304 306 308 308 308 308 308 308 308 307 306 306 305 305 304 304 303 303 303 303 303 302 303 304 304 304 304 304 304 304 304 304 304 304 304 304 304 304 304 305 305 305 305 306 306 306 307 308 308 308 309 309 309 309 309 309 309 309 310 310 310 311 311 312 313 314 315 317 319 319 318 319 323 327 328 328 329 330 330 331 331 331 332
306 304 304 305 307 309 309 309 309 309 308 309 308 308 307 306 306 305 305 304 303 303 303 303 303 303 303 304 304 304 304 304 304 304 304 304 304 304 304 304 304 304 305 305 305 305 306 306 306 306 308 308 308 308 309 309 309 309 309 310 310 310 309 310 310 310 310 311 311 312 313 314 315 317 318 318 321 325 328 327 327 328 329 330 330 330 329
304 304 306 308 309 310 310 311 310 310 310 309 308 307 306 306 306 306 305 304 304 304 304 303 303 304 303 303 303 304 304 304 304 304 305 304 304 304 305 305 305 305 305 305 305 305 306 306 306 306 307 308 308 308 309 309 309 310 310 310 309 309 309 309 310 311 311 311 311 312 313 314 315 316 317 316 318 323 327 326 326 327 327 327 328 328 327
304 306 309 310 310 310 311 311 311 311 311 310 309 307 306 306 307 306 305 304 304 304 304 303 303 303 303 303 304 304 305 305 305 305 305 305 305 305 305 305 305 305 305 305 306 306 306 306 306 307 307 308 308 309 309 309 309 310 309 309 309 309 309 310 310 310 311 311 311 312 313 314 315 316 316 316 318 323 326 326 325 326 325 325 326 327 326
306 309 310 310 310 311 311 311 312 312 311 311 310 309 308 308 308 307 305 304 304 304 303 303 302 303 303 304 304 304 305 306 306 306 306 306 306 305 305 305 305 306 306 306 306 306 306 307 307 307 308 309 309 308 309 308 309 310 309 309 309 309 310 310 309 309 310 310 311 312 314 315 316 317 318 318 321 325 326 324 323 324 324 323 324 325 324
309 310 310 310 311 311 311 312 312 312 311 311 311 310 310 309 308 307 305 304 303 303 302 302 302 303 304 304 304 305 307 308 308 308 308 308 308 307 306 305 305 306 306 306 306 307 307 307 307 308 308 309 309 309 309 309 309 310 309 309 309 310 310 309 309 309 309 310 311 313 315 316 317 319 320 320 323 326 326 323 322 324 324 323 323 323 323
310 310 311 311 312 312 312 312 312 311 311 311 310 310 310 309 308 307 306 304 303 302 301 301 302 303 304 304 305 306 307 308 309 310 310 310 310 309 308 307 306 306 307 307 307 308 308 309 309 309 309 310 309 309 309 309 310 310 310 310 310 310 310 310 310 310 311 312 312 314 315 316 318 321 323 323 325 326 326 324 323 324 323 323 323 323 323
310 311 312 312 313 313 313 312 312 311 311 310 310 310 310 310 309 309 307 306 303 302 301 301 301 303 304 305 306 307 307 308 309 310 310 310 310 310 310 309 307 307 307 307 308 308 309 309 310 310 311 311 311 310 310 310 311 311 311 311 311 311 312 312 312 312 313 313 313 315 318 319 320 321 324 325 326 326 325 324 324 323 323 323 322 323 323
311 312 313 313 314 313 313 312 312 311 311 311 311 310 310 310 310 309 308 306 305 303 302 301 301 302 303 305 306 307 307 308 310 310 310 310 311 311 311 310 310 309 309 308 309 310 309 309 310 311 312 312 312 311 312 312 313 313 313 313 313 312 313 313 313 313 313 314 315 318 320 321 320 321 324 326 326 325 324 324 324 323 322 322 323 324 325
312 313 314 314 314 313 313 313 312 312 311 311 311 311 310 310 309 308 307 306 305 304 303 302 302 303 303 304 305 306 307 309 310 311 311 312 312 312 311 311 312 312 311 310 311 311 311 310 311 312 312 312 312 312 312 313 313 313 313 313 313 313 313 314 314 314 316 318 319 321 322 321 321 323 325 326 326 324 323 323 323 322 322 323 325 325 326
313 314 314 314 314 314 313 313 313 313 313 313 312 311 310 309 308 307 306 306 306 305 304 302 302 302 303 303 304 306 308 309 310 310 311 312 312 312 312 312 312 312 312 312 312 312 312 312 313 312 312 312 313 313 313 313 314 314 314 314 315 316 317 317 318 318 320 321 322 323 323 323 323 324 324 326 326 325 322 322 323 323 324 327 327 327 327
313 314 314 314 314 314 313 313 313 314 314 313 312 312 311 310 309 308 307 306 306 305 303 302 303 302 302 303 305 306 307 307 308 309 310 311 312 312 312 312 312 311 311 311 312 312 313 314 314 313 314 314 314 314 313 314 316 317 318 318 319 319 320 321 321 321 321 322 323 324 325 324 324 324 324 325 325 325 324 324 325 325 327 328 328 329 330
314 314 314 314 314 314 314 313 314 314 314 313 312 312 311 311 311 310 309 308 308 306 305 304 304 304 303 304 306 307 307 307 308 309 310 310 310 311 311 311 311 311 311 311 311 312 312 313 313 313 313 314 313 313 314 315 316 317 319 320 321 320 320 321 322 322 322 322 323 324 325 324 323 324 324 324 324 325 326 327 327 328 328 328 329 331 331
314 314 314 314 314 314 314 314 314 314 313 313 312 312 312 312 312 312 312 312 313 312 310 308 308 308 307 305 306 307 308 308 308 309 309 309 309 310 310 309 308 310 312 311 309 309 309 311 312 312 311 312 313 314 315 317 317 318 319 321 320 320 320 321 323 323 323 323 323 324 324 324 323 323 324 324 324 326 327 327 328 330 330 330 331 332 331
314 314 314 313 313 314 314 314 314 313 313 313 312 313 314 315 314 314 314 315 315 315 314 313 313 314 312 309 307 308 309 309 309 309 308 308 308 308 308 307 307 310 312 309 307 307 310 311 312 311 311 312 314 314 315 317 318 318 319 320 320 320 321 322 322 323 323 324 324 324 324 323 323 324 324 325 325 326 327 327 328 330 330 329 329 329 328
314 313 314 314 313 313 314 314 313 313 314 313 313 313 314 315 315 316 316 315 315 315 316 315 316 317 315 312 311 311 311 310 310 309 308 307 307 306 307 308 309 311 310 307 307 310 312 312 312 312 312 313 313 313 313 315 316 316 317 318 318 319 321 322 322 322 322 323 323 323 324 323 323 324 325 326 326 327 327 326 327 328 328 327 326 325 325
314 314 314 314 313 313 314 314 313 313 314 314 313 314 315 315 315 316 316 315 315 316 316 315 316 318 317 315 315 315 314 313 312 311 310 309 308 309 310 312 312 311 310 309 311 312 311 310 311 312 312 312 312 312 312 313 314 314 315 315 315 317 319 320 321 322 322 321 321 323 324 324 324 324 325 326 325 326 326 326 326 326 325 324 323 322 322
313 313 313 313 313 313 314 314 313 313 314 314 313 314 315 315 315 315 315 314 314 315 315 315 316 317 318 316 317 317 316 315 316 315 314 314 314 313 314 315 313 312 312 312 312 312 310 309 310 311 311 311 311 311 311 312 312 313 313 313 314 315 316 317 318 320 321 321 322 323 323 324 324 324 325 325 324 325 324 324 324 322 321 320 320 319 318
313 312 312 313 313 313 313 314 313 313 313 313 313 313 314 314 314 314 314 314 314 314 315 315 316 317 317 316 316 316 315 316 317 316 315 316 317 316 315 315 314 313 312 312 312 311 310 309 309 310 310 310 310 310 310 311 312 312 313 313 313 314 315 315 315 316 318 318 319 320 320 320 321 321 321 321 322 322 321 321 321 320 319 319 320 319 318
314 313 312 313 313 313 313 313 313 313 313 313 312 313 313 313 314 314 314 313 314 315 315 315 315 316 315 315 316 316 315 315 316 316 315 315 316 316 315 315 314 312 312 312 311 310 309 309 309 310 309 309 309 309 309 309 310 311 312 312 313 313 313 314 315 315 316 316 317 317 317 317 317 318 317 318 318 318 318 319 319 319 318 319 321 320 319
313 313 313 313 313 313 313 313 313 312 312 312 312 312 312 313 314 314 314 314 314 315 315 315 316 316 315 314 315 315 315 315 316 315 314 314 314 314 313 313 312 311 311 310 309 309 309 309 310 309 308 308 308 308 308 308 309 309 310 311 312 313 313 314 314 314 315 315 315 315 315 315 316 317 316 316 317 317 318 319 319 319 319 320 321 321 320
312 312 313 313 313 313 313 313 313 312 312 312 312 312 312 313 313 313 313 313 314 314 314 314 315 316 315 314 314 314 315 315 315 314 313 313 313 312 312 312 311 310 309 308 308 309 310 310 309 308 308 307 307 307 307 308 308 308 309 310 312 312 313 313 313 314 314 314 314 315 315 315 316 316 316 316 316 316 317 317 317 317 318 319 319 320 320
312 312 312 312 313 313 313 312 312 312 312 312 312 311 312 312 312 312 312 313 313 314 314 314 315 315 314 314 314 314 314 315 314 313 313 313 312 311 311 311 310 310 309 309 310 310 309 308 308 307 307 306 306 306 307 307 308 309 309 311 312 313 313 313 313 314 314 314 314 315 315 315 316 316 315 315 316 316 316 316 316 316 316 316 317 317 318
312 312 311 311 311 312 312 312 311 311 311 311 311 311 311 312 311 311 312 312 313 313 314 315 315 313 313 313 314 314 314 314 314 313 313 312 311 311 310 310 310 310 310 310 309 308 308 307 306 306 306 306 306 305 306 307 307 308 309 311 313 314 314 314 314 314 314 314 314 314 314 314 314 315 315 315 316 316 315 315 315 315 315 315 316 316 316
312 312 312 311 311 310 311 311 311 311 311 311 310 310 310 310 311 311 311 312 313 313 313 314 314 313 312 313 314 315 314 313 313 312 312 312 311 311 311 310 310 310 309 308 307 307 306 306 305 305 305 305 305 305 305 306 306 306 307 309 310 312 313 314 314 314 314 314 314 313 313 314 314 315 315 315 315 315 314 313 313 314 314 314 314 314 314
Wind_Speed
26 27 27 28 29 29 30 29 28 29 29 30 32 26 17 12 10 13 18 19 16 9 3 6 6 2 7 9 7 7 8 9 11 11 11 11 8 5 4 4 3 2 2 2 2 3 4 4 4 4 5 6 6 10 15 14 9 4 3 2 3 2 1 4 3 0 2 3 5 5 3 5 9 9 10 11 12 12 11 7 4 6 7 5 4 8 4
25 25 26 27 28 28 29 28 26 27 27 28 29 22 14 11 12 13 17 18 18 11 4 6 5 5 10 11 7 6 7 8 10 11 10 10 8 6 5 5 4 4 4 3 4 4 3 4 6 4 4 4 7 12 16 14 9 6 5 5 3 2 1 3 5 4 4 5 7 7 5 4 4 4 4 5 11 16 14 6 2 5 10 11 9 8 3
24 25 25 26 27 27 28 27 26 26 26 25 25 20 15 11 8 12 18 18 16 11 6 6 6 7 11 11 8 8 7 7 9 11 11 11 11 7 6 7 6 6 5 3 5 7 4 3 4 4 4 4 6 13 15 12 10 9 11 10 5 1 0 1 5 9 10 8 7 6 4 2 1 1 1 2 6 13 14 7 4 6 9 11 12 8 2
24 25 25 25 26 26 26 26 25 26 25 25 24 18 14 8 4 9 16 13 10 9 8 9 7 7 10 9 7 10 8 5 8 9 8 12 15 9 7 10 8 8 8 3 5 8 5 4 4 4 5 4 5 11 11 8 12 13 14 14 6 1 1 2 1 1 2 2 1 2 3 1 2 2 3 3 3 5 7 8 8 6 5 9 13 10 5
23 24 24 24 25 25 25 25 25 24 24 24 23 16 10 5 3 7 9 8 8 8 8 11 10 9 9 6 5 10 10 6 7 6 4 11 17 9 6 12 10 9 10 5 3 6 4 5 5 5 5 3 5 9 5 6 13 14 13 14 6 1 2 2 3 4 3 3 4 4 3 2 3 5 7 6 4 4 6 9 7 5 7 11 11 10 11
22 23 23 24 24 24 25 25 24 24 23 23 20 13 7 4 5 7 6 4 6 7 9 13 12 11 10 5 4 9 11 8 8 6 4 9 13 7 5 12 13 12 11 6 3 5 3 3 5 4 5 4 5 7 4 5 12 13 10 11 6 1 1 2 2 4 4 5 6 3 2 3 4 6 9 9 8 7 8 9 8 6 9 10 6 8 11
21 22 22 23 24 24 24 24 23 23 22 21 17 10 6 5 5 7 6 5 8 10 11 13 12 11 9 4 4 9 10 9 9 7 5 5 9 8 6 11 13 12 11 7 4 4 3 3 4 5 6 6 4 5 2 3 10 12 9 8 5 2 1 3 4 6 5 6 6 3 1 3 6 8 10 11 12 11 11 11 11 11 11 12 11 10 11
22 22 22 22 23 23 23 23 22 22 21 19 15 9 7 7 6 7 8 8 10 10 10 10 9 8 7 5 6 8 10 11 11 9 6 3 5 8 9 11 11 10 10 7 4 6 6 5 4 5 7 5 3 3 2 2 8 9 6 5 6 4 1 3 5 6 5 4 5 4 3 5 9 10 11 11 12 12 12 11 11 11 10 11 14 14 10
23 22 22 22 22 22 22 22 22 21 19 18 15 10 9 9 9 9 8 7 8 8 8 8 7 5 5 5 7 9 10 12 13 10 5 1 4 9 11 11 9 7 8 5 4 7 10 8 7 7 7 6 4 3 3 4 6 5 4 3 4 4 1 2 3 5 5 3 4 7 9 10 12 12 12 12 12 11 9 9 9 10 8 9 12 12 8
23 22 21 21 22 22 22 21 21 20 18 16 13 10 10 11 11 9 7 5 5 7 7 7 6 5 5 7 9 10 11 12 12 8 2 2 7 11 11 10 8 6 6 5 7 12 14 13 12 12 11 11 11 11 10 9 6 3 3 3 2 2 2 1 2 4 4 3 5 9 10 10 9 8 6 8 9 8 9 9 9 10 9 9 9 7 6
24 23 21 20 21 21 21 20 20 19 17 15 12 12 11 10 10 10 7 5 5 6 5 5 5 6 9 12 12 11 11 11 11 8 5 8 13 13 11 9 6 4 4 7 12 17 19 18 17 15 14 14 15 15 15 14 11 9 5 3 2 3 3 2 2 3 4 5 6 8 8 8 4 1 1 3 6 6 6 8 9 9 9 9 10 9 8
24 24 22 20 19 20 20 20 19 18 17 15 13 13 12 9 10 9 6 4 6 6 5 6 8 9 13 15 13 10 11 11 12 12 11 12 13 12 11 8 5 3 7 13 18 19 17 16 14 12 12 14 15 15 15 14 14 14 12 7 5 4 4 3 3 3 4 4 4 6 8 5 1 3 1 4 5 4 6 9 9 7 6 8 11 12 12
25 25 24 21 19 19 19 19 19 19 17 16 14 14 12 9 9 9 8 6 6 7 7 10 13 14 13 12 10 10 12 14 14 13 11 11 11 11 9 6 5 8 13 17 18 15 10 8 8 7 7 8 9 11 14 16 17 16 14 12 9 6 5 3 3 4 3 2 4 7 3 7 10 3 3 1 1 2 5 7 3 3 7 6 7 9 11
27 26 26 24 20 19 19 19 19 19 18 16 16 14 12 9 8 9 9 6 6 9 10 10 10 10 8 8 9 11 13 15 13 11 10 11 11 10 8 8 10 13 14 13 11 8 5 3 4 4 3 4 4 5 10 14 15 16 15 13 11 9 6 4 4 6 5 4 7 8 5 11 14 6 4 3 1 1 2 3 1 3 6 6 7 9 11
28 27 27 26 23 20 19 19 19 19 18 17 16 15 13 11 9 10 11 9 7 10 12 10 8 8 8 9 10 10 10 10 9 10 11 11 9 9 10 11 11 11 9 7 4 2 2 3 3 3 1 1 1 1 2 4 8 12 15 14 12 10 8 6 5 5 5 5 7 8 8 9 7 3 5 2 2 2 2 2 2 1 6 9 8 9 11
28 28 28 28 26 23 20 18 18 19 18 18 18 17 14 11 10 10 11 11 7 6 6 6 8 10 11 12 12 10 8 7 7 8 9 7 8 12 14 12 10 8 6 4 2 2 2 2 3 2 1 1 3 2 1 1 1 3 7 12 14 12 9 7 6 5 6 7 7 8 8 5 3 7 5 2 2 5 5 4 2 2 8 12 10 9 12
30 29 28 28 29 28 23 19 18 18 18 18 18 18 16 12 11 12 12 12 10 10 11 11 12 13 12 11 11 9 7 7 8 7 5 7 11 14 14 12 11 8 4 2 2 1 2 2 2 3 2 1 3 3 2 2 1 2 3 5 11 11 8 7 8 8 7 7 7 7 6 3 2 5 3 2 3 7 5 5 2 3 7 11 10 11 11
30 29 28 28 29 30 28 23 19 18 19 19 19 20 19 14 12 12 13 13 11 12 14 13 14 15 12 9 10 9 7 9 9 6 6 9 10 9 11 12 10 6 3 1 1 1 1 2 2 3 2 0 2 4 2 1 2 1 3 1 5 7 7 8 9 9 8 9 8 7 5 4 2 3 1 1 4 5 5 5 1 2 6 9 10 13 12
31 30 29 28 28 28 30 27 20 18 19 19 19 21 21 16 13 13 15 15 13 13 14 12 12 16 15 12 15 15 12 12 11 6 5 6 4 6 11 9 4 3 3 2 1 1 2 1 1 2 3 1 1 3 2 0 2 3 4 3 3 5 6 7 9 8 7 7 7 7 5 2 2 3 2 2 4 5 4 2 1 5 8 8 10 13 12
32 31 30 29 28 27 28 27 22 18 18 18 19 22 22 20 16 15 16 17 17 20 22 19 18 21 20 18 19 18 15 14 12 7 6 6 6 9 9 3 0 2 2 1 1 1 1 2 1 1 2 1 1 3 3 2 3 4 3 4 4 3 4 5 8 9 7 7 8 8 5 1 3 1 3 5 5 3 3 3 2 4 7 9 10 12 12
33 32 31 30 28 28 28 26 22 19 18 18 19 22 24 23 19 17 17 17 18 19 18 14 14 18 20 20 21 21 19 19 17 13 12 12 9 6 4 2 2 2 1 1 1 1 1 2 2 1 2 2 2 3 4 5 5 3 4 5 4 4 3 3 4 5 6 8 7 4 2 5 10 10 6 3 1 1 1 3 3 3 5 8 9 11 12
33 33 32 30 29 29 28 26 22 19 18 18 18 21 24 25 22 19 17 18 20 22 22 22 24 27 28 27 26 26 26 26 25 22 19 17 13 10 10 9 8 6 3 1 2 2 1 2 2 3 4 3 3 4 5 5 4 2 3 4 3 1 1 2 3 3 4 6 7 9 13 15 16 16 13 8 3 1 2 2 1 3 5 7 9 11 12
34 34 33 31 29 29 29 26 23 21 18 17 18 21 24 25 23 21 19 19 22 26 29 29 28 28 28 26 23 20 19 21 23 24 24 20 15 14 15 15 12 10 8 7 5 2 2 3 3 4 4 4 4 5 5 4 5 4 4 5 5 6 6 3 2 3 7 8 10 14 20 21 18 18 16 11 6 3 3 1 1 4 7 8 8 10 10
36 36 34 31 30 30 29 26 24 23 20 18 19 21 23 24 23 21 19 18 18 20 20 19 19 20 20 18 14 10 10 12 15 17 20 21 17 13 13 15 13 10 10 12 10 6 3 3 2 3 4 4 3 4 5 6 6 6 6 7 6 5 4 3 4 6 7 6 7 11 15 17 17 18 18 15 10 6 2 2 5 8 8 8 8 8 8
38 36 34 31 31 31 30 27 26 24 21 19 19 20 22 24 24 23 20 18 16 13 8 8 15 20 17 11 8 8 8 8 10 11 15 21 23 19 16 14 12 11 11 11 11 9 6 4 3 4 5 5 4 5 6 6 4 5 6 7 6 4 3 4 7 7 6 7 12 16 21 24 25 24 23 20 14 8 3 2 8 11 10 8 8 7 6
39 37 34 32 31 31 31 29 27 25 22 19 19 20 22 24 24 23 22 20 19 15 10 9 14 19 17 15 17 19 17 15 14 14 16 19 22 23 22 17 13 12 12 11 11 11 8 5 4 5 6 5 5 5 6 6 6 6 7 8 9 8 7 8 8 8 8 11 14 17 20 22 24 25 26 24 17 7 3 1 7 14 12 7 5 6 7
39 36 34 33 32 32 32 30 27 25 22 19 19 20 22 24 25 25 24 22 17 11 8 7 9 15 21 25 25 20 15 13 13 14 17 18 20 21 24 23 19 17 16 13 11 10 8 6 6 7 8 7 5 6 8 9 8 8 10 11 10 9 9 8 7 8 8 8 8 8 9 10 12 17 22 25 18 8 2 1 6 15 14 7 3 5 8
38 36 34 33 32 33 33 31 28 26 23 20 19 19 19 22 24 25 25 24 21 15 12 12 13 17 22 22 18 12 9 9 10 12 15 17 20 22 24 24 22 20 19 16 12 8 7 7 7 7 7 6 6 7 9 9 8 8 10 10 10 10 10 9 8 10 12 13 12 13 12 13 16 21 26 29 26 13 3 1 3 11 16 9 4 6 10
37 35 34 33 33 34 33 32 29 26 22 18 17 16 17 21 23 23 24 26 26 25 22 19 17 16 16 15 16 17 17 17 15 13 15 17 19 21 22 22 21 20 19 16 13 10 9 10 12 11 8 5 3 4 5 6 7 8 9 10 13 16 18 17 16 17 19 21 22 20 19 21 25 27 29 31 31 20 7 3 2 6 14 11 5 7 10
36 34 33 33 34 35 34 31 28 24 19 15 12 11 13 15 15 14 17 21 25 26 22 13 8 8 11 16 22 22 17 14 13 12 13 17 19 21 20 19 19 19 17 16 14 11 10 10 12 14 14 10 5 2 3 6 7 8 10 14 17 20 24 25 24 22 22 25 26 23 25 29 30 31 33 35 36 28 13 9 4 4 13 12 7 7 9
34 33 34 36 37 36 33 28 23 20 17 13 10 8 7 7 7 5 6 11 18 23 20 11 8 9 12 17 19 14 8 8 10 10 11 14 18 20 21 18 17 17 18 18 16 13 10 9 8 10 13 15 11 4 3 7 8 8 13 19 23 24 25 26 27 27 27 29 29 28 32 35 31 29 33 36 34 28 17 14 9 7 13 15 9 7 8
33 34 36 38 37 33 27 21 17 17 17 14 12 10 9 12 14 12 6 5 12 18 15 7 5 6 6 8 11 10 9 12 12 10 11 13 14 17 19 19 18 18 18 17 13 10 11 13 13 13 14 14 10 3 4 8 10 13 21 27 27 24 23 24 27 29 30 31 28 24 26 30 28 28 32 31 28 27 21 18 14 10 12 14 10 7 8
34 36 38 37 33 27 21 16 15 15 16 14 13 12 12 16 19 16 8 5 11 15 12 4 1 3 3 5 10 11 10 9 8 7 8 10 11 12 15 18 18 16 16 14 9 6 8 12 12 13 14 13 9 4 5 10 15 23 31 34 29 25 26 30 32 34 36 36 31 26 26 29 28 27 27 26 25 28 24 22 19 13 12 11 7 5 5
36 37 36 33 28 22 18 16 15 15 14 13 12 12 10 11 14 14 12 9 9 10 9 4 1 3 3 4 7 7 5 6 6 4 3 5 8 10 11 14 15 13 13 14 11 8 8 9 8 8 9 10 10 6 7 12 19 26 31 32 31 30 30 32 33 34 35 35 34 33 35 35 30 23 19 21 25 26 22 20 19 15 13 12 9 4 2
36 35 32 28 24 20 17 18 19 18 16 14 15 14 11 9 9 9 13 14 8 6 5 4 3 2 3 3 3 4 4 6 6 5 3 3 6 8 9 9 8 8 9 11 10 8 8 9 8 6 5 6 7 8 9 13 19 22 23 25 29 28 24 24 28 31 31 31 33 32 28 25 23 19 17 19 22 22 21 20 19 19 18 16 15 10 6
35 32 28 24 22 20 18 20 23 23 20 18 17 14 10 9 8 6 8 15 11 5 2 3 2 2 2 2 3 4 5 5 5 4 4 3 4 7 8 6 4 6 8 8 5 6 9 10 8 5 5 6 7 9 11 14 19 21 22 26 30 28 23 23 28 32 32 31 28 23 18 17 17 16 16 18 20 20 21 21 20 20 19 18 16 13 10
32 29 25 23 21 19 18 22 26 27 23 19 13 8 4 4 4 2 8 14 13 8 5 2 2 3 3 2 3 5 4 4 5 3 3 3 1 5 7 4 2 4 6 5 4 5 8 10 8 6 7 9 11 16 20 23 26 29 32 34 35 32 27 26 28 29 26 20 15 13 15 15 14 15 17 20 20 20 21 21 20 20 19 18 18 15 12
29 26 23 22 21 19 19 23 27 26 23 19 13 6 2 3 4 4 7 8 7 6 5 4 4 4 4 3 5 6 3 3 5 4 2 2 2 2 4 2 1 2 2 3 4 5 5 6 6 7 9 10 13 21 29 30 30 31 34 35 34 30 26 23 22 19 15 10 9 14 17 17 18 19 20 21 22 22 21 21 21 20 19 19 19 18 15
27 25 23 22 21 19 19 22 24 22 19 17 12 6 2 2 3 2 4 4 2 4 5 4 5 6 7 5 6 8 5 3 2 2 2 3 3 1 1 0 0 1 2 2 1 2 3 3 3 6 6 4 8 19 29 30 26 24 25 23 19 15 15 14 12 11 10 8 9 16 20 22 24 25 24 24 24 23 22 22 22 22 21 20 19 19 18
26 25 23 22 21 19 17 20 22 20 16 13 9 5 2 1 1 0 1 2 2 3 5 4 5 5 6 6 5 5 2 3 2 2 2 2 4 3 1 0 2 2 3 2 3 4 4 2 2 4 5 6 13 23 30 29 22 19 19 15 9 10 13 10 4 7 9 9 9 14 19 22 25 26 27 26 26 25 25 26 26 25 24 23 21 20 21
26 24 22 21 20 18 18 22 22 16 11 9 6 3 2 2 2 1 2 2 2 2 3 3 3 3 5 7 7 4 3 3 3 3 3 3 4 3 1 1 3 2 1 2 5 5 3 2 3 3 5 12 21 27 27 21 14 12 15 16 14 15 15 8 2 7 9 9 9 13 17 20 21 23 25 26 27 29 29 28 27 26 25 24 24 25 26
22 22 20 18 18 16 17 22 22 13 7 6 6 2 1 3 3 2 3 4 4 5 8 8 6 3 2 4 6 4 3 2 1 1 2 3 4 3 1 1 2 2 1 4 5 3 2 3 3 4 11 21 29 33 31 23 14 13 19 23 22 19 12 6 8 9 9 10 11 15 20 21 21 22 24 25 26 28 28 26 26 25 24 24 26 29 30
17 18 18 16 16 15 13 15 17 11 3 3 5 3 3 4 5 3 3 6 8 10 13 16 15 11 5 1 2 3 3 4 3 1 1 1 2 3 1 1 2 2 3 4 3 2 2 3 4 6 15 26 33 38 38 33 28 28 33 35 32 24 15 11 12 11 12 13 14 18 21 21 20 22 24 24 24 25 25 24 25 26 26 26 28 30 31
14 18 17 13 12 13 9 8 11 10 4 2 4 4 4 7 7 4 4 7 10 13 18 21 19 13 7 4 3 1 1 3 3 2 1 1 0 2 2 2 2 3 3 3 2 2 2 4 6 12 21 28 34 38 40 40 38 39 40 41 39 37 32 25 18 16 17 16 15 17 19 18 17 18 19 19 21 23 24 26 28 30 31 31 31 31 32
15 17 14 9 9 12 9 5 6 7 5 3 3 4 5 8 8 6 8 11 13 17 24 29 24 15 11 9 5 2 3 2 1 1 1 1 0 2 3 2 2 2 2 2 3 4 3 5 9 17 25 30 32 36 39 41 40 40 41 41 43 45 44 38 32 30 28 23 20 21 23 24 24 24 23 23 23 23 24 27 31 34 35 35 34 33 34
16 14 9 5 6 10 8 3 3 4 3 4 6 7 8 9 9 10 13 16 17 20 25 28 23 14 11 11 7 5 6 6 2 1 4 2 2 3 3 2 2 4 4 4 5 6 5 6 11 19 27 30 31 33 37 38 40 42 43 43 45 48 48 46 46 45 41 37 36 38 36 35 35 34 33 32 32 29 29 32 36 38 39 37 34 33 35
15 12 9 5 4 6 6 4 4 5 7 9 12 13 13 11 11 15 19 20 19 20 22 22 18 12 11 11 8 7 8 7 4 4 5 3 2 3 4 3 3 4 4 5 6 5 4 9 16 24 28 30 32 34 37 38 40 41 42 42 44 46 47 48 50 50 47 46 46 43 38 38 41 44 44 44 42 38 37 39 41 40 39 35 32 33 35
13 10 7 5 2 3 5 6 7 9 11 12 14 18 19 16 16 21 25 24 21 19 20 17 12 8 10 12 9 6 7 7 5 4 5 4 2 2 4 4 4 4 4 5 6 5 6 13 20 24 27 30 33 35 36 38 39 40 40 40 42 42 42 43 45 45 45 46 45 42 39 41 44 46 45 45 43 40 38 39 38 36 34 32 31 32 34
18 12 9 5 2 2 8 10 8 9 16 21 24 26 26 23 21 25 27 24 21 18 17 14 9 5 6 9 7 5 6 7 5 3 4 5 4 3 4 4 4 5 4 4 5 8 13 18 21 24 28 33 34 34 35 38 39 39 39 39 40 39 39 40 40 41 42 42 41 40 41 42 42 42 42 43 42 39 36 36 35 34 32 31 30 30 31
20 16 13 9 5 5 11 12 9 9 16 23 27 27 26 23 25 28 27 24 21 18 15 13 11 7 3 4 4 4 5 5 4 3 5 6 5 4 4 4 4 4 5 6 8 13 18 22 24 26 30 32 33 33 34 37 39 39 40 40 39 38 38 38 38 39 40 40 38 38 39 39 39 39 39 39 37 35 33 33 33 32 31 31 31 31 31
12 11 13 14 11 8 7 7 7 8 11 15 19 22 23 23 25 27 25 22 20 17 12 8 7 4 3 4 4 3 3 4 3 4 5 5 4 3 4 4 4 5 7 11 14 16 18 21 24 26 28 29 31 31 33 36 38 39 39 38 37 35 34 35 36 36 36 36 35 36 36 36 35 34 34 33 32 31 31 31 30 29 28 28 29 30 30
8 8 10 15 18 16 12 8 8 9 12 14 19 23 25 24 23 23 25 25 22 15 10 8 6 3 4 5 5 3 3 3 5 7 7 5 3 3 4 3 4 6 9 12 15 17 18 20 22 23 25 28 30 31 33 35 36 36 35 35 35 33 31 31 31 30 30 31 31 32 32 31 29 28 28 28 28 29 30 29 28 26 26 26 27 27 28
Wind_Direction
354 354 351 350 350 351 353 354 353 351 350 352 353 355 358 347 331 351 7 14 21 34 52 14 11 3 349 341 325 339 352 344 343 345 343 346 341 321 319 326 330 354 5 4 4 0 13 37 49 77 80 50 8 350 347 343 347 10 30 33 2 347 189 197 197 223 316 267 239 248 259 229 223 220 210 206 202 197 208 220 178 186 203 181 216 252 236
356 353 351 351 351 351 354 354 353 353 352 353 352 352 351 329 317 344 9 24 35 42 33 8 357 340 344 341 339 5 10 357 354 346 338 345 340 320 336 355 349 355 11 38 35 10 16 56 54 60 77 40 353 352 356 355 4 29 15 356 336 305 222 186 181 183 214 231 230 220 193 189 227 232 229 227 212 209 214 212 144 207 204 193 217 240 195
355 353 351 351 351 352 354 353 353 352 351 353 352 349 346 337 320 337 353 14 41 48 34 10 353 348 348 337 340 4 8 5 359 338 333 352 349 332 342 349 350 6 12 62 52 23 25 63 56 56 51 29 351 350 353 358 9 13 2 353 334 278 11 208 200 198 201 204 211 212 180 158 250 269 352 316 230 221 222 209 194 215 199 194 217 232 148
355 353 351 349 350 351 352 352 352 352 351 351 352 353 351 347 341 340 341 354 24 35 26 12 358 354 351 335 337 359 358 359 1 345 338 353 350 347 5 358 357 16 12 33 53 27 35 66 75 73 39 19 345 343 348 8 12 4 360 356 344 198 66 0 298 185 192 190 215 331 7 348 270 305 313 312 296 262 240 221 214 195 178 212 224 229 237
355 353 351 349 349 349 350 351 351 352 352 351 353 359 0 351 354 352 342 341 352 359 7 6 356 346 345 331 321 350 356 356 5 6 354 352 347 345 23 17 16 19 7 2 27 18 38 69 64 61 39 15 339 343 359 29 11 5 3 358 351 135 57 48 61 49 34 349 327 332 334 291 274 293 293 288 298 294 252 236 229 172 186 227 225 222 241
354 353 352 349 347 348 348 348 350 351 352 352 355 2 6 355 339 341 344 336 334 339 342 341 337 332 335 332 319 343 355 358 2 4 337 351 356 351 12 16 12 7 0 353 7 12 34 62 45 40 28 7 346 358 52 51 14 10 7 6 7 325 24 72 38 357 346 321 313 313 293 276 268 271 279 283 279 269 256 253 255 221 225 252 241 218 234
354 352 351 349 347 347 347 346 348 351 351 352 356 1 357 343 324 323 330 319 310 309 312 317 324 330 330 333 340 341 347 351 355 349 314 340 15 16 12 4 357 354 355 356 20 25 21 33 35 23 7 356 347 355 31 49 18 11 7 10 7 328 56 71 350 325 320 311 309 312 284 284 285 273 267 268 267 263 255 253 259 258 261 279 283 262 249
354 352 349 347 345 346 347 345 346 349 350 351 355 355 345 338 327 315 313 311 309 306 309 315 323 330 329 337 350 341 337 342 346 336 309 302 12 17 9 354 344 342 344 351 33 33 8 352 352 354 348 345 353 359 11 25 9 5 6 4 354 342 32 45 350 318 303 309 311 308 303 297 291 278 262 257 256 254 248 243 250 258 263 270 274 274 268
353 352 349 345 343 344 345 344 345 348 349 349 349 347 336 328 324 316 307 308 316 316 321 326 322 324 332 342 347 338 331 338 339 327 308 349 26 8 354 341 334 331 331 342 20 1 342 317 301 308 304 295 303 314 318 335 345 357 7 349 343 341 331 18 350 302 287 312 323 317 318 308 286 267 255 249 245 247 249 238 229 232 244 255 257 263 267
350 349 348 345 342 342 341 341 343 345 347 347 343 336 333 328 325 322 310 302 316 322 325 326 317 320 332 334 333 328 322 330 337 331 323 34 2 348 335 324 326 326 322 342 349 329 314 300 293 287 274 269 274 273 273 283 289 294 318 322 309 292 285 296 299 280 283 309 321 324 323 302 272 253 246 245 249 258 260 253 243 234 236 248 251 258 268
349 347 345 343 340 340 339 337 338 340 341 341 335 329 332 326 315 315 310 292 303 321 325 318 309 311 320 322 323 320 318 326 335 333 318 317 323 326 321 312 313 314 316 331 330 316 305 299 290 275 262 260 260 259 261 264 257 247 247 254 250 250 251 257 263 263 281 305 322 317 294 266 244 146 121 261 266 268 271 277 276 258 243 250 259 261 263
351 349 345 341 337 336 335 334 332 333 335 334 329 327 331 325 309 303 297 286 301 310 305 298 296 298 306 310 312 313 317 321 322 317 309 308 312 314 314 308 297 305 326 326 321 315 309 302 288 267 251 248 250 252 253 254 249 240 232 228 237 239 232 240 239 239 269 301 309 274 251 248 303 82 106 272 253 239 284 288 277 274 279 270 261 257 256
347 347 346 343 336 331 330 330 327 326 327 326 322 321 324 322 309 295 285 284 290 291 292 294 293 292 295 302 306 310 313 313 312 309 306 308 310 311 312 309 299 308 320 321 318 315 311 299 286 270 247 233 240 245 243 242 242 238 228 221 224 229 231 236 225 225 243 245 233 236 257 327 312 296 105 40 190 170 292 280 255 3 356 320 285 278 273
343 343 343 342 338 330 324 323 322 321 320 317 315 316 317 313 300 286 280 278 279 287 294 298 298 296 291 292 301 309 313 314 313 312 314 311 305 306 311 309 307 311 315 315 310 305 300 292 294 291 246 203 214 232 232 234 236 234 226 217 215 221 226 231 226 221 217 220 237 249 300 309 289 267 106 90 130 84 327 282 258 15 12 347 317 309 302
339 339 338 338 338 333 323 318 316 315 313 311 309 308 309 306 293 279 271 267 279 291 284 271 278 294 295 293 301 308 310 313 315 316 319 314 302 304 315 316 318 321 317 305 291 285 293 294 290 290 258 204 250 261 212 224 231 228 225 219 212 212 217 222 225 219 214 228 244 253 262 266 255 172 123 148 207 176 182 228 232 56 24 359 332 314 312
336 335 334 334 334 333 327 317 310 309 307 306 304 302 303 299 287 279 272 265 268 284 275 258 272 288 292 292 294 294 290 298 316 317 318 324 319 316 321 326 331 331 316 280 248 260 278 276 277 277 286 335 326 317 317 298 251 202 207 209 207 209 216 223 235 239 224 223 233 238 246 254 150 136 151 226 208 172 184 241 251 53 10 348 335 322 317
332 330 331 332 331 331 329 319 307 303 301 298 295 295 297 293 283 279 274 262 256 262 266 269 275 279 284 287 286 280 272 282 302 307 303 316 320 317 322 334 337 335 322 249 230 264 262 256 285 285 265 280 294 285 293 299 286 72 94 181 197 205 213 217 227 237 228 228 242 242 246 286 92 137 169 274 171 164 200 259 260 50 357 337 329 323 316
329 328 328 330 330 330 331 324 308 298 295 293 290 289 291 289 280 274 266 258 258 264 266 266 267 266 263 269 277 277 276 284 293 294 291 301 307 310 323 333 334 335 344 317 258 292 282 270 285 287 283 11 281 275 295 323 277 342 30 33 202 204 213 215 221 229 227 230 244 249 255 282 271 178 168 148 163 190 243 259 238 354 335 333 323 312 312
328 327 325 326 327 328 331 328 314 296 291 288 283 283 285 284 278 271 263 256 255 262 265 263 262 262 260 262 269 270 271 276 280 282 288 293 304 316 317 317 309 314 339 342 274 273 284 280 298 289 291 0 354 299 306 314 288 323 343 313 245 205 209 218 221 227 228 226 239 259 271 282 211 180 158 170 205 232 264 279 324 311 321 337 326 310 313
328 327 324 323 323 323 328 328 317 299 291 286 278 276 279 280 276 270 264 259 259 268 273 268 262 263 262 257 258 262 266 267 263 254 256 268 299 322 315 302 95 332 318 287 280 328 298 285 324 322 288 292 331 320 311 285 291 297 283 280 271 230 226 229 219 219 224 223 231 243 250 355 9 274 186 197 226 262 333 336 320 319 329 334 322 312 316
328 327 325 323 321 321 325 325 316 303 292 283 275 273 275 277 276 271 266 263 263 270 278 274 264 267 267 260 257 258 257 256 254 250 254 263 276 297 297 296 339 341 0 351 306 315 1 322 315 298 290 300 315 311 303 301 303 276 244 261 270 231 220 250 243 228 224 219 216 227 271 329 332 317 288 258 282 42 33 305 307 357 352 338 323 313 317
328 328 325 323 321 322 322 319 313 304 293 282 273 268 268 272 275 275 271 264 259 262 271 277 280 281 278 273 269 265 259 256 256 253 255 260 259 250 254 270 276 266 259 296 287 264 278 302 295 285 288 290 282 282 287 292 296 276 234 240 254 263 341 315 271 260 261 252 266 299 299 295 303 306 304 307 309 216 193 239 299 24 13 351 325 311 315
329 328 327 324 322 322 320 316 310 303 294 283 272 264 263 269 274 275 273 267 264 269 277 282 284 282 280 282 287 283 270 261 254 246 243 247 252 253 252 254 256 255 248 238 235 254 285 268 270 284 281 271 272 279 275 263 265 274 264 250 269 311 334 334 254 283 304 287 266 269 277 284 295 299 295 293 284 246 211 182 78 49 28 3 330 313 318
329 328 327 325 324 322 320 315 310 303 295 285 273 265 264 267 268 267 264 260 261 272 282 280 273 277 287 297 302 291 264 253 250 244 237 233 235 245 247 239 236 240 242 238 234 236 258 267 256 264 265 253 249 265 265 260 263 271 272 269 274 288 294 280 269 285 300 292 261 259 274 293 307 304 294 287 279 262 232 92 68 58 38 13 348 328 326
329 329 329 327 325 324 322 317 311 303 295 286 277 267 261 261 262 261 257 254 256 266 279 275 272 282 296 301 285 275 274 266 256 249 240 231 227 230 235 234 229 231 244 253 244 228 234 255 243 252 263 241 223 249 262 261 262 264 268 273 275 281 300 296 280 270 266 274 282 285 288 292 295 295 290 284 275 259 232 84 70 67 52 23 5 355 358
329 330 331 329 328 326 324 320 313 305 296 286 278 267 258 256 258 257 253 253 258 262 260 263 275 282 287 287 288 292 293 283 266 254 249 244 239 238 239 239 239 240 246 254 243 227 230 244 239 249 255 230 215 247 259 259 266 269 267 269 271 277 286 281 274 276 278 274 277 282 283 281 281 281 278 272 263 243 206 132 80 77 65 38 18 22 25
330 331 332 331 330 329 326 322 316 307 298 287 276 268 261 255 254 253 249 247 249 251 248 249 265 276 283 290 297 300 295 283 271 258 250 245 243 242 240 237 237 241 242 244 241 234 233 238 239 247 253 249 249 258 257 260 268 267 266 266 264 267 270 262 260 272 270 261 270 285 285 280 282 281 277 272 264 240 181 7 69 84 81 62 31 45 45
331 332 334 334 332 329 326 322 317 310 302 290 277 269 263 255 252 252 251 247 242 241 252 265 275 285 291 296 301 304 298 290 278 262 250 241 234 233 234 232 231 234 236 238 241 240 237 242 247 249 246 243 250 255 255 258 259 258 260 250 232 236 250 251 256 266 265 268 283 291 288 290 291 288 286 285 280 266 199 22 23 86 89 71 29 47 53
333 335 336 335 332 328 325 321 316 311 306 295 280 270 266 263 260 256 253 250 245 244 253 267 276 280 283 286 290 295 296 295 287 270 255 244 234 229 229 227 226 226 228 233 239 244 248 251 252 252 243 223 234 261 257 255 257 258 255 237 225 235 246 248 253 263 271 277 282 280 276 276 277 279 283 287 285 274 226 173 314 84 95 88 56 47 48
336 338 338 336 332 328 325 321 316 314 310 295 276 269 272 278 280 267 252 250 247 242 243 255 276 278 274 281 292 300 301 294 285 270 248 237 232 228 224 223 224 225 226 232 236 242 251 251 248 250 244 229 229 277 266 255 265 265 255 249 249 254 255 251 250 255 263 271 275 273 269 269 272 278 280 280 278 271 237 179 178 114 102 98 79 56 49
338 340 339 336 333 331 329 326 320 317 313 295 271 259 263 283 303 296 251 239 237 235 235 242 266 281 286 288 294 306 315 298 288 277 255 240 234 231 226 222 220 218 220 228 234 238 245 246 247 254 242 221 216 240 260 253 267 272 260 259 260 258 256 254 254 257 261 266 270 271 270 269 270 273 273 272 269 259 224 167 150 130 106 99 89 74 62
341 342 340 336 334 334 335 334 327 320 315 305 291 288 288 289 292 292 275 207 206 218 226 239 268 279 289 288 286 295 307 301 290 274 256 245 235 229 224 220 218 216 218 225 231 234 238 239 244 257 249 222 208 231 258 247 257 262 261 263 264 259 256 260 265 267 267 267 266 265 266 266 264 263 265 266 259 239 204 156 134 136 119 102 89 77 72
343 342 340 337 338 340 341 342 339 329 322 316 316 320 313 297 289 284 266 187 184 203 213 217 278 263 262 289 292 295 301 296 277 254 248 240 220 210 211 211 211 214 216 218 219 227 235 231 234 249 248 225 208 233 259 242 244 250 256 262 266 265 265 270 272 270 270 269 264 256 258 264 267 267 265 257 240 222 194 151 135 141 134 115 96 65 64
343 342 341 341 344 348 349 350 348 341 333 329 333 344 337 301 284 272 250 219 188 190 205 211 237 255 267 299 298 293 300 301 282 261 254 228 201 192 192 192 195 203 211 214 220 235 244 237 236 246 240 215 208 231 255 248 247 252 257 263 267 266 266 269 268 266 267 268 264 261 262 262 260 258 252 236 220 208 186 156 149 157 153 141 133 112 65
343 343 345 347 352 356 357 356 353 351 351 345 339 342 341 322 310 291 259 239 207 169 193 216 224 261 288 297 283 279 302 305 286 261 264 247 206 194 181 170 181 201 204 205 219 237 244 245 248 251 236 210 214 232 247 253 258 261 261 264 267 265 260 260 263 264 264 264 265 267 264 251 239 235 229 216 207 196 178 164 163 168 165 154 143 141 157
344 347 350 355 360 2 2 359 355 352 349 344 340 342 338 328 338 333 251 231 217 188 181 197 192 226 260 278 300 310 312 311 295 259 244 247 218 198 184 169 186 205 191 188 214 237 228 228 239 251 247 235 234 241 250 261 271 275 272 271 273 272 264 261 266 269 268 266 263 257 238 218 217 220 211 202 200 192 178 166 164 167 165 155 145 146 158
347 351 355 0 6 8 4 359 354 349 346 348 355 9 11 356 19 86 208 219 225 234 243 230 220 229 223 235 297 309 311 330 338 306 233 233 214 184 182 186 210 195 185 199 232 228 213 214 226 250 256 251 257 270 277 280 282 282 280 278 280 281 277 272 271 270 268 262 248 223 202 193 198 203 198 194 196 192 179 168 164 168 168 159 153 157 164
350 355 1 7 11 10 2 354 350 348 349 356 10 33 60 53 73 141 191 215 239 247 239 242 251 229 194 201 264 277 281 337 354 349 304 311 326 172 176 198 208 185 222 253 235 213 206 208 222 251 259 256 267 283 292 294 291 288 285 282 281 284 286 285 279 270 263 247 208 194 189 182 182 190 192 189 188 188 183 173 169 171 170 162 158 159 159
353 358 6 12 14 8 357 353 354 353 351 353 4 27 64 51 54 122 183 206 236 221 211 233 255 227 194 206 268 280 271 264 309 321 311 334 355 18 206 299 347 242 278 283 251 250 256 232 234 265 272 276 297 305 310 313 312 311 308 299 291 295 306 302 281 253 244 237 207 194 192 189 188 189 187 185 185 188 187 181 177 174 169 162 158 157 153
357 1 5 8 6 3 1 2 4 3 357 350 353 14 45 23 5 11 224 249 255 213 204 225 256 245 224 228 265 296 276 212 238 302 316 336 351 345 289 1 7 328 264 265 353 343 312 279 282 292 296 311 314 314 316 317 317 326 336 338 344 354 346 332 275 201 207 214 204 198 200 201 197 190 185 184 186 188 186 181 176 169 163 160 157 154 151
358 0 1 359 355 356 7 14 11 4 358 357 357 7 23 12 356 326 325 332 332 309 279 262 255 251 237 226 227 246 258 235 249 306 337 346 346 341 306 312 347 342 257 298 337 338 315 300 319 320 314 316 319 325 331 330 324 338 358 8 13 8 357 354 129 169 188 193 187 188 193 196 196 192 187 184 186 185 181 174 167 162 161 162 158 152 147
359 359 357 355 354 357 9 17 13 3 351 0 4 0 357 354 349 354 8 8 350 335 335 334 331 327 279 212 210 221 229 211 204 0 355 354 1 359 323 296 354 30 338 315 321 320 322 342 355 350 339 339 344 354 6 17 28 31 28 28 25 18 16 62 115 131 156 169 174 179 181 180 181 182 179 178 179 178 172 164 158 156 156 153 147 142 138
8 7 1 358 0 3 11 17 13 8 8 4 0 4 12 2 357 4 8 354 340 336 342 346 346 347 352 302 230 225 200 181 161 109 79 1 8 10 357 0 15 352 309 314 329 351 0 8 11 349 346 352 359 7 17 29 38 40 40 39 35 32 49 92 110 114 127 139 150 160 164 164 167 172 175 175 172 165 157 153 151 147 140 134 130 128 127
26 24 18 11 3 3 11 15 6 5 15 12 358 2 358 351 351 354 349 343 337 335 339 343 344 346 353 348 320 289 197 203 200 169 126 143 329 7 23 25 355 318 307 332 5 12 358 5 2 355 357 4 9 13 20 28 33 36 41 43 39 42 55 69 79 94 110 121 133 143 146 145 145 150 153 152 148 143 140 139 138 134 128 124 121 119 120
34 26 22 23 13 9 15 18 1 3 13 6 357 1 349 341 340 334 331 332 330 332 340 345 344 345 357 4 359 357 4 348 235 193 0 331 31 26 19 4 337 344 0 14 16 20 19 4 355 356 1 8 13 19 25 30 32 36 41 42 40 44 51 53 57 70 83 90 97 104 105 103 105 110 111 113 117 119 118 117 118 116 114 113 112 111 114
38 25 23 41 27 14 18 26 4 4 358 333 332 335 328 324 321 321 329 336 336 336 344 350 349 349 1 12 17 13 3 0 8 358 345 348 42 22 358 333 347 8 21 33 29 25 15 351 352 359 5 10 17 23 28 32 36 39 40 42 44 47 49 48 51 59 64 68 75 81 82 84 90 94 94 94 97 98 95 97 101 104 105 104 103 106 112
40 27 31 51 30 14 26 31 356 338 327 323 329 335 336 332 335 344 353 357 355 353 357 3 7 9 11 10 14 19 8 2 9 11 359 3 48 19 1 16 24 11 15 28 25 17 354 351 360 6 11 17 25 29 31 35 39 41 43 48 52 54 53 52 54 57 60 63 69 72 72 75 81 83 83 83 85 85 86 90 96 101 104 104 104 107 109
40 28 32 42 37 20 9 344 326 333 343 345 350 357 3 6 5 4 9 14 13 8 6 5 6 12 12 8 12 25 12 2 13 27 10 5 25 10 7 27 29 12 18 28 20 6 357 360 5 13 21 28 32 33 34 37 40 41 43 50 55 58 59 59 59 61 64 67 70 71 72 76 81 83 83 85 86 85 86 90 94 97 101 103 105 105 105
50 47 40 36 58 24 352 337 329 348 4 9 11 13 14 15 11 9 14 22 25 24 20 13 7 6 359 354 2 26 20 6 9 16 8 16 30 17 8 24 27 13 12 19 11 5 6 8 14 24 32 35 37 38 39 42 44 44 46 50 56 59 61 62 63 65 68 71 75 77 80 83 86 87 88 89 90 89 89 91 93 95 98 99 99 99 99
53 51 39 31 29 1 352 355 4 9 7 9 11 11 9 8 9 13 19 25 28 31 34 28 21 22 12 348 5 43 33 12 8 16 18 25 30 15 7 23 29 11 358 358 360 3 8 15 25 34 37 39 41 41 42 45 47 47 48 53 59 62 62 64 67 69 71 73 77 81 82 83 85 86 87 89 91 92 92 93 95 96 97 98 98 98 98
49 51 41 36 35 20 0 11 33 25 8 4 6 7 7 8 11 16 24 28 28 31 33 16 354 350 9 21 27 27 351 337 359 36 37 29 20 18 26 29 12 347 348 358 6 12 19 25 32 38 41 43 45 45 47 50 52 50 49 52 56 60 65 68 70 73 74 76 78 80 80 82 85 88 89 91 93 94 94 94 94 94 95 95 96 96 96
44 48 42 37 38 39 42 43 33 17 12 14 18 20 20 18 18 25 35 38 35 30 18 2 359 20 34 21 12 1 344 1 33 45 44 33 21 34 44 20 345 343 356 9 20 30 37 39 41 44 47 50 52 52 53 55 56 54 53 53 53 55 61 66 70 73 75 76 77 79 81 84 87 90 92 93 93 93 93 94 95 95 96 95 95 95 94